Location: Unspecified
(0.0000°N, 0.0000°E)
Time: 13:50:32
(UTC+00:00)

Envisat - Pass Details

Date: 22 November 2020
Orbit: 764 x 766 km, 98.1° (Epoch: 28 November)

Event Time Altitude Azimuth Distance (km) Brightness Sun altitude
Rises 18:37:03 0° 203° (SSW) 3,230 6.9 -11.9°
Reaches altitude 10° 18:40:34 10° 229° (SW) 2,301 6.7 -12.7°
Maximum altitude 18:42:58 14° 257° (WSW) 2,063 6.5 -13.3°
Drops below altitude 10° 18:45:23 10° 286° (WNW) 2,296 6.3 -13.8°
Sets 18:48:54 0° 312° (NW) 3,217 6.6 -14.6°
